This demonstration page uses our WeatherBlox Daily Observations layout. Learn more.

36.17497, -115.13722

Hourly Observations for June 22, 2020

Temp ( °F °C ) Dew Point ( °F °C ) Humidity (%) Winds ( mph kmh ) Pressure ( in mb ) Visibility ( mi km ) Precip ( " mm )
12:53 am 00:53 Clear 91 32.8 31 -0.6 12 12 W 6 9 29.77 1008 10 16.0934 0 0
1:53 am 01:53 Clear 86 30 35 1.7 16 16 WNW 3 6 29.78 1008 10 16.0934 0 0
2:53 am 02:53 Clear 83 28.3 33 0.6 17 17 NW 7 11 29.78 1009 10 16.0934 0 0
3:53 am 03:53 Clear 82 27.8 32 0 16 16 NNW 9 15 29.79 1009 10 16.0934 0 0
4:53 am 04:53 Clear 83 28.3 31 -0.6 15 15 NNW 8 13 29.81 1009 10 16.0934 0 0
5:53 am 05:53 Sunny 81 27.2 30 -1.1 16 16 WNW 7 11 29.84 1010 10 16.0934 0 0
6:53 am 06:53 Sunny 86 30 34 1.1 15 15 W 5 7 29.85 1011 10 16.0934 0 0
7:53 am 07:53 Sunny 89 31.7 35 1.7 15 15 NW 3 6 29.87 1012 10 16.0934 0 0
8:53 am 08:53 Sunny 92 33.3 36 2.2 14 14 N 5 7 29.88 1012 10 16.0934 0 0
9:53 am 09:53 undefined 94 34.4 37 2.8 14 14 E 5 7 29.89 1012 10 16.0934 0 0
10:53 am 10:53 Sunny 98 36.7 36 2.2 11 11 NE 3 6 29.88 1012 10 16.0934 0 0
11:53 am 11:53 Sunny 101 38.3 35 1.7 10 10 NNE 3 6 29.88 1012 10 16.0934 0 0
12:53 pm 12:53 Sunny 104 40 34 1.1 9 9 VRB 6 9 29.86 1011 10 16.0934 0 0
1:53 pm 13:53 Sunny 106 41.1 33 0.6 8 8 ESE 8 13 29.84 1010 10 16.0934 0 0
2:53 pm 14:53 Sunny 107 41.7 34 1.1 8 8 VRB 7 11 29.82 1010 10 16.0934 0 0
3:53 pm 15:53 Sunny 108 42.2 33 0.6 7 7 undefined N/A 29.8 1009 10 16.0934 0 0
4:53 pm 16:53 Sunny 108 42.2 33 0.6 7 7 SE 13 20 29.78 1009 10 16.0934 0 0
5:53 pm 17:53 Sunny 107 41.7 32 0 7 7 E 5 7 29.78 1008 10 16.0934 0 0
6:53 pm 18:53 Sunny 106 41.1 32 0 8 8 SE 10 17 29.77 1008 10 16.0934 0 0
7:53 pm 19:53 Sunny 104 40 32 0 8 8 ESE 10 17 29.77 1008 10 16.0934 0 0
8:53 pm 20:53 Clear 101 38.3 33 0.6 9 9 S 8 13 29.77 1008 10 16.0934 0 0
9:53 pm 21:53 Clear 100 37.8 33 0.6 10 10 S 5 7 29.77 1008 10 16.0934 0 0
10:53 pm 22:53 Clear 98 36.7 33 0.6 10 10 S 10 17 29.76 1008 10 16.0934 0 0
11:53 pm 23:53 Clear 94 34.4 32 0 11 11 Calm 29.77 1008 10 16.0934 0 0

Powered by AerisWeather